Tracking 19246 objects as of 21-Aug-2018
HD Live streaming from Space Station
objects crossing your sky now

COSMOS 624

Track COSMOS 624 now!
10-day predictions
COSMOS 624 is classified as:


NORAD ID: 6992
Int'l Code: 1973-104H
Perigee: 1,357.6 km
Apogee: 1,492.4 km
Inclination: 74.0 °
Period: 114.2 minutes
Semi major axis: 7795 km
RCS: 0.676 m2 (medium)
Launch date: December 19, 1973
Source: Commonwealth of Independent States (former USSR) (CIS)
Launch site: PLESETSK MISSILE AND SPACE COMPLEX (PKMTR)
aabbcc
Your satellite tracking list
Your tracking list is empty




NASA's NSSDC Master Catalog

Two Line Element Set (TLE):
1  6992U 73104H   18232.56577668 -.00000018 +00000-0 -71514-5 0  9991
2  6992 074.0269 065.8528 0086462 267.3020 121.3680 12.61238054056594
Source of the keplerian elements: AFSPC